This is the latest recevied weather packets stored in our database for station/object LA3SP-1. If no packets are shown the sender has not sent any weather packets the latest 10 day(s).
| Time | Temp. | Humidity | Pressure | Rain* | Wind** | Luminosity | Snow |
|---|---|---|---|---|---|---|---|
| 1777426790 | 0.56° C | 72% | 1023.6 hPa | 0 mm | - | - | - |
| 1777425588 | 1.67° C | 72% | 1023.7 hPa | 0 mm | - | - | - |
| 1777424986 | 1.67° C | 72% | 1023.8 hPa | 0 mm | - | - | - |
| 1777424385 | 1.11° C | 72% | 1023.7 hPa | 0 mm | - | - | - |
| 1777423783 | 1.67° C | 71% | 1023.8 hPa | 0 mm | - | - | - |
| 1777423182 | 1.67° C | 71% | 1023.7 hPa | 0 mm | - | - | - |
| 1777422580 | 1.11° C | 71% | 1023.7 hPa | 0 mm | - | - | - |
| 1777421378 | 1.67° C | 70% | 1023.8 hPa | 0 mm | - | - | - |
| 1777420776 | 1.67° C | 70% | 1023.7 hPa | 0 mm | - | - | - |
| 1777420175 | 1.67° C | 70% | 1023.6 hPa | 0 mm | - | - | - |
| 1777419573 | 1.67° C | 69% | 1023.7 hPa | 0 mm | - | - | - |
| 1777418972 | 2.22° C | 68% | 1023.8 hPa | 0 mm | - | - | - |
| 1777418371 | 2.22° C | 68% | 1023.8 hPa | 0 mm | - | - | - |
| 1777417769 | 2.22° C | 68% | 1023.8 hPa | 0 mm | - | - | - |
| 1777417337 | 2.22° C | 69% | 1023.7 hPa | 0 mm | - | - | - |
| 1777417168 | 2.22° C | 68% | 1023.8 hPa | 0 mm | - | - | - |
| 1777416566 | 2.22° C | 69% | 1023.7 hPa | 0 mm | - | - | - |
| 1777415965 | 1.67° C | 70% | 1023.7 hPa | 0 mm | - | - | - |
| 1777415363 | 1.67° C | 69% | 1023.6 hPa | 0 mm | - | - | - |
| 1777414761 | 1.67° C | 68% | 1023.5 hPa | 0 mm | - | - | - |
| 1777414160 | 2.22° C | 67% | 1023.5 hPa | 0 mm | - | - | - |
| 1777413559 | 2.78° C | 66% | 1023.5 hPa | 0 mm | - | - | - |
| 1777412957 | 2.78° C | 67% | 1023.7 hPa | 0 mm | - | - | - |
| 1777412356 | 2.22° C | 68% | 1023.7 hPa | 0 mm | - | - | - |
| 1777411153 | 2.78° C | 66% | 1023.6 hPa | 0 mm | - | - | - |
* Rain latest 24 hours (hover to see other rain measurements)
** Current wind speed in m/s (hover to see current wind gust speed)